Content
SEND FEEDBACK

Daily
Averages
Monthly
Summary
United States of America

ANN ARBOR, MICHIGAN


Home > North America > United States > Michigan
Elevation: 759 feet     Latitude: 42 17N     Longitude: 083 43W

WEATHER
 
SELECT A DAY
Number of Records: 200,898;   Date Range: 1/1/95 - 4/19/14
 
SHARE

PRINT THIS DATA

[ ← Previous Day ]
WEATHER ALMANAC - MAY 25, 2013
[ Next Day → ]
[ °C ]   °F
Weather ElementAverageHighLow
Temperature42.6 °F64.9 °F (3:53 pm)28.4 °F (6:20 am)
Dewpoint33 °F37.9 °F (7:53 am)28.4 °F (6:13 am)
Humidity75.7 %100 % (4:01 am)32 % (1:53 pm)
Barometer30.34 in30.41 in (9:53 am)30.29 in (6:53 pm)
Wind Speed1.6 mph6.9 mph (4:53 pm)
Weather ElementAverage
Visibility5.9 mi
Wind DirectionNNE (27.3 °)

Weather ElementTotal
Precipitation---
Heating Degree Days18.4 (Base 65)
Averaged from 41 records on May 25, 2013
WEATHER CONDITIONS BREAKOUT
WIND DIRECTION BREAKOUT
WEATHER BY HOUR - MAY 25, 2013
[ °C ]   °F
Local TimeTemperatureDewpointHumidityBarometerVisibilityWind DirectionWind SpeedGust SpeedPrecipitationEventsConditions
1:53 AM37.0 °F35.1 °F93 %30.35 in10.0 miCalmClear
2:53 AM37.0 °F35.1 °F93 %30.36 in10.0 miCalmClear
3:53 AM34.0 °F33.1 °F96 %30.36 in2.5 miCalmClear
4:01 AM33.8 °F33.8 °F100 %30.35 in8.0 miCalmClear
4:11 AM33.8 °F32.0 °F93 %30.35 in1.8 miCalmClear
4:21 AM33.8 °F30.2 °F87 %30.35 in3.0 miCalmClear
4:25 AM33.8 °F30.2 °F87 %30.35 in1.8 miCalmClear
4:36 AM30.2 °F30.2 °F100 %30.34 in3.0 miCalmClear
4:40 AM30.2 °F30.2 °F100 %30.34 in1.8 miCalmClear
4:53 AM30.9 °F30.0 °F96 %30.36 in2.5 miCalmClear
5:02 AM30.2 °F30.2 °F100 %30.34 in4.0 miCalmClear
5:09 AM33.8 °F32.0 °F93 %30.34 in1.8 miCalmClear
5:13 AM33.8 °F32.0 °F93 %30.34 in3.0 miCalmClear
5:29 AM33.8 °F32.0 °F93 %30.34 in1.2 miCalmClear
5:40 AM32.0 °F32.0 °F100 %30.33 in2.5 miCalmClear
5:44 AM32.0 °F32.0 °F100 %30.33 in1.2 miCalmClear
5:53 AM30.0 °F30.0 °F100 %30.35 in0.5 miCalmFogLight Freezing Fog
6:04 AM30.2 °F30.2 °F100 %30.34 in1.5 miCalmClear
6:06 AM30.2 °F30.2 °F100 %30.34 in3.0 miCalmClear
6:13 AM30.2 °F28.4 °F93 %30.34 in1.0 miCalmClear
6:20 AM28.4 °F28.4 °F100 %30.34 in0.2 miCalmFogLight Freezing Fog
6:53 AM32.0 °F32.0 °F100 %30.36 in0.2 miCalmFogFog
7:07 AM35.6 °F35.6 °F100 %30.34 in1.8 miCalmClear
7:14 AM35.6 °F33.8 °F93 %30.34 in5.0 miCalmClear
7:53 AM43.0 °F37.9 °F82 %30.37 in10.0 miCalmClear
8:53 AM48.0 °F35.1 °F61 %30.40 in10.0 miEast (80°)3.5 mphOvercast
9:53 AM52.0 °F30.9 °F45 %30.41 in10.0 miSE (130°)3.5 mphClear
10:53 AM55.9 °F33.1 °F42 %30.40 in10.0 miVariable5.8 mphClear
11:53 AM55.9 °F33.1 °F42 %30.39 in10.0 miVariable3.5 mphClear
12:53 PM60.1 °F34.0 °F38 %30.38 in10.0 miVariable5.8 mphClear
1:53 PM62.1 °F32.0 °F32 %30.35 in10.0 miNNE (30°)3.5 mphClear
2:53 PM62.1 °F33.1 °F34 %30.34 in10.0 miVariable3.5 mphClear
3:53 PM64.9 °F35.1 °F33 %30.32 in10.0 miCalmClear
4:53 PM64.9 °F35.1 °F33 %30.31 in10.0 miNNE (30°)6.9 mphClear
5:53 PM64.9 °F36.0 °F34 %30.30 in10.0 miNorth (360°)4.6 mphClear
6:53 PM64.0 °F35.1 °F34 %30.29 in10.0 miNorth (10°)6.9 mphClear
7:53 PM61.0 °F36.0 °F39 %30.29 in10.0 miNorth (360°)6.9 mphClear
8:53 PM57.9 °F37.0 °F46 %30.29 in10.0 miNE (40°)6.9 mphClear
9:53 PM54.0 °F36.0 °F51 %30.30 in10.0 miEast (80°)3.5 mphClear
10:53 PM51.1 °F37.9 °F61 %30.32 in10.0 miCalmClear
11:53 PM41.0 °F37.0 °F86 %30.33 in10.0 miCalmClear
Hourly data recorded from KARB, located 2.06 miles away from Ann Arbor, Michigan







STORIES FROM OUR PARTNERS